WXForecasting.com
Aberdeen, SD - Weather Station Data
Daily Summary for April 20, 2017 Units:  English    Metric   Both
« Previous Day
Next Day »
Daily Weekly Monthly Yearly Custom
  High: Low: Average:
Temperature: 55.0 °F 41.7 °F 47.9 °F
Dew Point: 43.0 °F 38.0 °F 40.5 °F
Humidity: 89 % 60 % 76 %
Wind Speed: 14.0 mph 0.0 mph 3 mph
Wind Gust: 17.0 mph - -
Wind:- - WSW
Pressure: 30.19 in 30.05 in -
Precipitation: 0.01 in    
Historical Graphs
 
 
Tabular Data for April 20, 2017
Time Temperature Dew Point Pressure Wind Wind Speed Wind Gust Humidity Rainfall Rate (Hourly) solar Conditions
00:12 41.7 °F 39.0 °F 30.08 in North 3.0 mph 5.0 mph 89 % 0.00 in 0 W/m2
00:27 41.7 °F 39.0 °F 30.08 in North 1.0 mph 4.0 mph 89 % 0.00 in 0 W/m2
00:42 41.7 °F 39.0 °F 30.08 in North 1.0 mph 4.0 mph 89 % 0.01 in 0 W/m2
00:57 41.7 °F 39.0 °F 30.08 in North 1.0 mph 4.0 mph 89 % 0.01 in 0 W/m2
01:12 41.7 °F 39.0 °F 30.09 in Calm   2.0 mph 89 % 0.01 in 0 W/m2
01:27 41.7 °F 39.0 °F 30.09 in Calm   2.0 mph 89 % 0.01 in 0 W/m2
01:42 41.7 °F 39.0 °F 30.09 in NNW 1.0 mph 5.0 mph 89 % 0.00 in 0 W/m2
01:57 41.8 °F 39.0 °F 30.09 in Calm   3.0 mph 89 % 0.00 in 0 W/m2
02:12 41.8 °F 39.0 °F 30.08 in NW 4.0 mph 6.0 mph 89 % 0.00 in 0 W/m2
02:27 41.8 °F 39.0 °F 30.08 in NW 2.0 mph 8.0 mph 89 % 0.00 in 0 W/m2
02:42 42.0 °F 39.0 °F 30.08 in West 1.0 mph 5.0 mph 89 % 0.00 in 0 W/m2
02:57 42.0 °F 39.0 °F 30.07 in WNW 1.0 mph 5.0 mph 89 % 0.00 in 0 W/m2
03:12 42.1 °F 39.0 °F 30.07 in NW 1.0 mph 5.0 mph 89 % 0.00 in 0 W/m2
03:27 42.2 °F 39.0 °F 30.07 in NW 3.0 mph 5.0 mph 89 % 0.00 in 0 W/m2
03:42 42.1 °F 39.0 °F 30.06 in NW 6.0 mph 9.0 mph 89 % 0.00 in 0 W/m2
03:57 42.0 °F 39.0 °F 30.05 in NNW 4.0 mph 12.0 mph 89 % 0.00 in 0 W/m2
04:12 41.7 °F 39.0 °F 30.06 in Calm   12.0 mph 89 % 0.00 in 0 W/m2
04:27 41.8 °F 39.0 °F 30.06 in NW 2.0 mph 10.0 mph 89 % 0.00 in 0 W/m2
04:42 41.9 °F 39.0 °F 30.07 in NW 2.0 mph 8.0 mph 89 % 0.00 in 0 W/m2
04:57 41.9 °F 39.0 °F 30.07 in NW 1.0 mph 9.0 mph 89 % 0.00 in 0 W/m2
05:13 41.8 °F 39.0 °F 30.08 in Calm   7.0 mph 88 % 0.00 in 0 W/m2
05:27 41.8 °F 39.0 °F 30.08 in Calm   5.0 mph 88 % 0.00 in 0 W/m2
05:43 41.9 °F 39.0 °F 30.08 in NNW 3.0 mph 9.0 mph 88 % 0.00 in 0 W/m2
05:58 42.1 °F 39.0 °F 30.09 in NNW 4.0 mph 12.0 mph 87 % 0.00 in 0 W/m2
06:13 42.1 °F 39.0 °F 30.09 in NNW 1.0 mph 10.0 mph 87 % 0.00 in 0 W/m2
06:28 42.1 °F 39.0 °F 30.10 in NNW 6.0 mph 9.0 mph 88 % 0.00 in 0 W/m2
06:43 42.1 °F 39.0 °F 30.09 in NNW 3.0 mph 6.0 mph 88 % 0.00 in 0 W/m2
06:58 42.2 °F 39.0 °F 30.10 in Calm   9.0 mph 88 % 0.00 in 9 W/m2
07:13 42.2 °F 39.0 °F 30.10 in NNW 4.0 mph 8.0 mph 89 % 0.00 in 16 W/m2
07:28 42.3 °F 39.0 °F 30.11 in NNW 4.0 mph 6.0 mph 89 % 0.00 in 25 W/m2
07:43 42.5 °F 39.0 °F 30.11 in NW 6.0 mph 8.0 mph 88 % 0.00 in 53 W/m2
07:58 42.7 °F 39.0 °F 30.11 in North 1.0 mph 11.0 mph 88 % 0.00 in 65 W/m2
08:13 43.0 °F 39.0 °F 30.12 in North 1.0 mph 9.0 mph 87 % 0.00 in 74 W/m2
08:28 43.2 °F 40.0 °F 30.12 in NNW 3.0 mph 6.0 mph 87 % 0.00 in 97 W/m2
08:43 43.8 °F 40.0 °F 30.12 in NNW 3.0 mph 9.0 mph 87 % 0.00 in 174 W/m2
08:58 45.1 °F 41.0 °F 30.11 in NNW 4.0 mph 10.0 mph 85 % 0.00 in 346 W/m2
09:13 46.4 °F 42.0 °F 30.11 in North 14.0 mph 17.0 mph 83 % 0.00 in 345 W/m2
09:28 46.5 °F 41.0 °F 30.11 in NNW 9.0 mph 14.0 mph 81 % 0.00 in 258 W/m2
09:44 46.5 °F 41.0 °F 30.11 in North 8.0 mph 13.0 mph 81 % 0.00 in 323 W/m2
09:58 47.0 °F 41.0 °F 30.11 in NNW 3.0 mph 11.0 mph 80 % 0.00 in 274 W/m2
10:13 47.1 °F 41.0 °F 30.11 in NNE 3.0 mph 11.0 mph 80 % 0.00 in 325 W/m2
10:28 47.2 °F 41.0 °F 30.11 in North 10.0 mph 14.0 mph 79 % 0.00 in 297 W/m2
10:43 48.3 °F 42.0 °F 30.11 in NW 8.0 mph 14.0 mph 78 % 0.00 in 246 W/m2
10:58 48.4 °F 41.0 °F 30.11 in North 4.0 mph 12.0 mph 76 % 0.00 in 274 W/m2
11:13 48.7 °F 41.0 °F 30.12 in North 9.0 mph 15.0 mph 76 % 0.00 in 387 W/m2
11:28 49.1 °F 41.0 °F 30.12 in NNW 8.0 mph 13.0 mph 74 % 0.00 in 162 W/m2
11:43 49.7 °F 41.0 °F 30.12 in North 8.0 mph 15.0 mph 73 % 0.00 in 373 W/m2
11:58 49.9 °F 41.0 °F 30.12 in North 10.0 mph 14.0 mph 72 % 0.00 in 357 W/m2
12:13 50.3 °F 42.0 °F 30.12 in NNW 6.0 mph 12.0 mph 72 % 0.00 in 272 W/m2
12:29 51.9 °F 43.0 °F 30.11 in NNW 3.0 mph 13.0 mph 72 % 0.00 in 1081 W/m2
12:44 51.9 °F 41.0 °F 30.11 in WNW 7.0 mph 11.0 mph 67 % 0.00 in 459 W/m2
12:59 52.0 °F 41.0 °F 30.11 in North 5.0 mph 11.0 mph 67 % 0.00 in 239 W/m2
13:14 51.6 °F 41.0 °F 30.12 in North 5.0 mph 13.0 mph 67 % 0.00 in 176 W/m2
13:29 51.7 °F 41.0 °F 30.11 in North 5.0 mph 11.0 mph 68 % 0.00 in 223 W/m2
13:44 52.1 °F 41.0 °F 30.12 in NNE 2.0 mph 10.0 mph 67 % 0.00 in 183 W/m2
13:59 52.3 °F 41.0 °F 30.11 in NNW 1.0 mph 8.0 mph 65 % 0.00 in 281 W/m2
14:14 53.0 °F 42.0 °F 30.11 in North 6.0 mph 12.0 mph 67 % 0.00 in 378 W/m2
14:29 53.0 °F 41.0 °F 30.11 in NNE 7.0 mph 10.0 mph 64 % 0.00 in 269 W/m2
14:44 53.8 °F 42.0 °F 30.11 in NNW 2.0 mph 4.0 mph 64 % 0.00 in 432 W/m2
14:59 54.4 °F 41.0 °F 30.11 in NNW 3.0 mph 10.0 mph 60 % 0.00 in 237 W/m2
15:14 54.4 °F 41.0 °F 30.11 in NNW 4.0 mph 9.0 mph 61 % 0.00 in 188 W/m2
15:29 53.9 °F 41.0 °F 30.11 in SSW 2.0 mph 8.0 mph 62 % 0.00 in 98 W/m2
15:44 53.4 °F 42.0 °F 30.11 in NE 3.0 mph 10.0 mph 65 % 0.00 in 102 W/m2
15:59 53.0 °F 42.0 °F 30.11 in NNE 4.0 mph 10.0 mph 66 % 0.00 in 237 W/m2
16:14 53.3 °F 43.0 °F 30.11 in North 3.0 mph 10.0 mph 67 % 0.00 in 174 W/m2
16:29 53.2 °F 43.0 °F 30.12 in North 1.0 mph 8.0 mph 68 % 0.00 in 107 W/m2
16:44 53.3 °F 43.0 °F 30.12 in North 3.0 mph 8.0 mph 67 % 0.00 in 221 W/m2
16:59 53.9 °F 43.0 °F 30.12 in North 2.0 mph 6.0 mph 67 % 0.00 in 221 W/m2
17:15 54.7 °F 43.0 °F 30.12 in North 1.0 mph 8.0 mph 64 % 0.00 in 234 W/m2
17:29 54.8 °F 42.0 °F 30.12 in NNW 6.0 mph 11.0 mph 62 % 0.00 in 160 W/m2
17:44 55.0 °F 41.0 °F 30.13 in NNW 8.0 mph 10.0 mph 60 % 0.00 in 156 W/m2
17:59 54.8 °F 41.0 °F 30.13 in North 4.0 mph 11.0 mph 60 % 0.00 in 172 W/m2
18:14 55.0 °F 42.0 °F 30.13 in NNW 3.0 mph 10.0 mph 61 % 0.00 in 132 W/m2
18:29 54.9 °F 41.0 °F 30.14 in NNW 3.0 mph 8.0 mph 60 % 0.00 in 102 W/m2
18:44 54.9 °F 41.0 °F 30.14 in NNW 4.0 mph 6.0 mph 61 % 0.00 in 100 W/m2
18:59 55.0 °F 41.0 °F 30.14 in North 1.0 mph 6.0 mph 60 % 0.00 in 86 W/m2
19:14 55.0 °F 41.0 °F 30.14 in NNW 3.0 mph 6.0 mph 60 % 0.00 in 67 W/m2
19:29 54.9 °F 41.0 °F 30.14 in NNW 4.0 mph 4.0 mph 61 % 0.00 in 42 W/m2
19:44 54.6 °F 41.0 °F 30.14 in North 2.0 mph 4.0 mph 61 % 0.00 in 25 W/m2
19:59 54.2 °F 42.0 °F 30.14 in Calm   3.0 mph 63 % 0.00 in 19 W/m2
20:14 53.9 °F 42.0 °F 30.15 in Calm   3.0 mph 64 % 0.00 in 9 W/m2
20:29 53.6 °F 42.0 °F 30.15 in Calm   3.0 mph 65 % 0.00 in 0 W/m2
20:44 53.2 °F 42.0 °F 30.15 in North 1.0 mph 2.0 mph 66 % 0.00 in 0 W/m2
20:59 52.8 °F 42.0 °F 30.16 in Calm   2.0 mph 67 % 0.00 in 0 W/m2
21:14 52.5 °F 42.0 °F 30.16 in Calm   1.0 mph 67 % 0.00 in 0 W/m2
21:29 51.8 °F 41.0 °F 30.17 in Calm     68 % 0.00 in 0 W/m2
21:44 50.9 °F 42.0 °F 30.17 in Calm     71 % 0.00 in 0 W/m2
21:59 50.2 °F 41.0 °F 30.18 in Calm     72 % 0.00 in 0 W/m2
22:14 49.5 °F 42.0 °F 30.18 in Calm     74 % 0.00 in 0 W/m2
22:29 49.0 °F 41.0 °F 30.18 in Calm     75 % 0.00 in 0 W/m2
22:44 48.4 °F 41.0 °F 30.18 in Calm     76 % 0.00 in 0 W/m2
22:59 47.4 °F 41.0 °F 30.18 in Calm     78 % 0.00 in 0 W/m2
23:14 46.3 °F 40.0 °F 30.18 in Calm     78 % 0.00 in 0 W/m2
23:29 45.4 °F 40.0 °F 30.18 in Calm     80 % 0.00 in 0 W/m2
23:44 44.5 °F 39.0 °F 30.19 in Calm     80 % 0.00 in 0 W/m2
23:59 43.2 °F 38.0 °F 30.19 in Calm     81 % 0.00 in 0 W/m2
Compliments of Weather Underground - 1 mb

27 Visitors online right now
Max visitors today: 86 at 06:38 pm EDT
This month: 90 at 05-12-2017 04:57 pm EDT
This year: 96 at 04-27-2017 04:01 pm EDT
All time: 104 at 01-04-2012 03:34 am EST
See Who is Online